Flag Weather past 2 weeks in Jodhpur, Rajasthan, India

Now
68 °F

Clear.


Feels Like: 68 °F
Forecast: 61 / 80 °F
Wind: 5 mph from Northeast

Location: Jaipur / Sanganer

Current Time: Nov 24, 2014 at 10:10:06 PM

Latest Report: Nov 24, 2014 at 9:00 PM


Visibility: 1 mi

Pressure: 30.04 "Hg

Humidity: 33%

Dew point: 37 °F

Location of JodhpurLocation

Historic Weather in Jodhpur — Graph

°F

Jodhpur temperature yesterday

Maximum temperature yesterday: 84 °F (at 1:00 PM)
Minimum temperature yesterday: 61 °F (at 3:00 AM)
Average temperature yesterday: 72 °F

Past Weeks' High & Low Weather Summary

 TemperatureHumidityPressure
High86 °F (Nov 10, 2:00 PM)64% (Nov 11, 5:30 AM)30.15 "Hg (Nov 11, 5:30 AM)
Low54 °F (Nov 16, 5:30 AM)8% (Nov 15, 4:00 PM)29.89 "Hg (Nov 22, 3:00 PM)
Average71 °F35%30.03 "Hg
* Reported Nov 9 8:00 PM — Nov 24 8:00 PM, Jodhpur, Weather by CustomWeather, © 2014

Note: Actual official high and low records may vary slightly from our data, if they occured in-between our weather recording intervals... More about our weather records

Advertising

Jodhpur weather history for previous 24 hours

 ConditionsComfort  
Time TempWeatherWind HumidityBarometerVisibility
8:00 PM
Nov 24
70 °FClear.No wind33%30.04 "Hg1 mi
7:00 PM72 °FClear.No wind36%30.01 "Hg1 mi
6:00 PM75 °FClear.No wind27%30.01 "Hg1 mi
5:00 PM79 °FClear.No wind21%29.98 "Hg1 mi
4:00 PM81 °FClear.5 mph18%29.98 "Hg1 mi
3:00 PM82 °FClear.6 mph17%29.98 "Hg1 mi
12:00 PM79 °FClear.3 mph21%30.07 "Hg1 mi
11:00 AM77 °FClear.7 mph22%30.09 "Hg1 mi
7:30 AM57 °FClear.No wind51%30.04 "Hg1 mi
7:00 AM57 °FPassing clouds.No wind51%30.04 "Hg1 mi
6:30 AM57 °FPassing clouds.No wind51%30.04 "Hg1 mi
6:00 AM57 °FPassing clouds.No wind51%30.01 "Hg1 mi
5:30 AM59 °FPassing clouds.No wind48%30.01 "Hg1 mi
5:00 AM59 °FPassing clouds.No wind45%29.98 "Hg1 mi
4:00 AM61 °FPassing clouds.No wind39%29.98 "Hg1 mi
3:00 AM63 °FPassing clouds.No wind37%30.01 "Hg1 mi
2:00 AM66 °FPassing clouds.2 mph30%30.01 "Hg1 mi
11:00 PM
Nov 23
72 °FPassing clouds.6 mph31%30.01 "Hg1 mi
10:00 PM72 °FPassing clouds.5 mph31%30.01 "Hg1 mi
Weather by CustomWeather, © 2014

See weather overviewHow to use our weather pages